Regional Weather Roundup
Issued by NWS

Home | Current Version | Previous Version | Text Only | Print | Product List | Glossary On
Versions: 1 2 3 4 5 6 7 8 9 10 11 12 13 14 15 16 17 18 19 20 21 22 23 24 25 26 27 28 29 30 31 32 33 34 35 36 37 38 39 40 41 42 43 44 45 46 47 48 49 50
000
ASUS43 KLSX 080810
RWRMO

WEATHER SUMMARY FOR MISSOURI
NATIONAL WEATHER SERVICE SPRINGFIELD MO
200 AM CST MON FEB 08 2016

NOTE: "FAIR" INDICATES FEW OR NO CLOUDS BELOW 12,000 FEET WITH NO
       SIGNIFICANT WEATHER AND/OR OBSTRUCTIONS TO VISIBILITY.
       CURRENT SKY AND/OR WEATHER CONDITIONS ARE NOT AVAILABLE FOR
       CHILLICOTHE AND FARMINGTON.

MOZ001>031-035>038-043-044-053-054-080900-
...NORTHERN AND WESTERN MISSOURI...

CITY           SKY/WX    TMP DP  RH WIND       PRES   REMARKS
KANSAS CTY INT CLOUDY    34  22  61 NW25G36   29.99R WCI  21
KANSAS C DTWN  CLOUDY    37  20  50 NW26G43   29.98F WCI  25
LEE`S SUMMIT   MOCLDY    35  19  52 NW28G46   29.98S WCI  22
ST JOSEPH      MOCLDY    33  21  61 NW21G32   30.00S WCI  21
CHILLICOTHE      N/A     32  21  64 NW16G25   29.93S WCI  21
KIRKSVILLE     CLOUDY    30  21  69 NW14G23   29.83F WCI  19

$$
MOZ066>068-077>081-088>096-101>105-080900-
...SOUTHWEST MISSOURI...

CITY           SKY/WX    TMP DP  RH WIND       PRES   REMARKS
SPRINGFIELD    CLOUDY    39  21  48 W14G21    29.97F
JOPLIN         CLEAR     36  21  54 W15G23    30.06F WCI  27

$$
MOZ032>034-039>042-045>050-055>058-069>072-080900-
...CENTRAL MISSOURI...

CITY           SKY/WX    TMP DP  RH WIND       PRES   REMARKS
COLUMBIA       CLOUDY    34  25  69 W20G31    29.87S WCI  23
JEFFERSON CITY CLOUDY    37  25  61 NW17G29   29.90S WCI  27
ROLLA          LGT SNOW  33  29  85 W17G26    29.86S FOG     WCI  22
SEDALIA        CLOUDY    36  27  69 W14       29.93F WCI  27
WHITEMAN AFB   FLURRIES  37  25  62 W20G29    29.92F WCI  26
WARRENSBURG    CLOUDY    36  21  55 W25G33    29.95S WCI  23
OSAGE BEACH    CLOUDY    37  19  48 W15G23    29.93S WCI  28

$$
MOZ051-052-059>065-080900-
...EAST CENTRAL MISSOURI...

CITY           SKY/WX    TMP DP  RH WIND       PRES   REMARKS
ST LOUIS INTL  MOCLDY    38  29  70 W13       29.82F WCI  30
SPIRIT OF STL  CLOUDY    38  28  67 W8        29.82F
ST CHARLES     CLOUDY    37  30  75 W12       29.81F WCI  29

$$
MOZ072>076-082>087-097>100-106>115-080900-
...SOUTH CENTRAL AND SOUTHEAST MISSOURI...

CITY           SKY/WX    TMP DP  RH WIND       PRES   REMARKS
CAPE GIRARDEAU CLOUDY    37  29  72 W8        29.83F
FARMINGTON     CLOUDY    35  28  75 W13G18    29.84S WCI  26
POPLAR BLUFF   PTCLDY    44  20  38 W12       29.87F
WEST PLAINS    MOCLDY    37  21  52 W16G26    29.92F WCI  28

$$



USA.gov is the U.S. government's official web portal to all federal, state and local government web resources and services.